Date String (YYYY-MM-DD hh:mm:ss) UTC,Instrument flags,Ambient pressure (hPa),Sample flow (lpm),Bypass flow (lpm),Sample temperature (°C),Ambient temperature (°C),ASC tube jacket temperature (°C),LED temperature (°C),Box temperature (°C),Sample RH (%),Span deviation,Mass concentration (μg/m³),Mass concentration (μg/m³),Mass concentration (μg/m³)
DateTimeUTC,F1_M11,P_M11,Q1_M11,Q2_M11,T1_M11,T2_M11,T3_M11,T4_M11,T5_M11,U1_M11,ZSPAN_M11,X0_M11,X2_M11,X1_M11
2023-05-21 01:00:00,,0834.5,5.00,0.00,29.9,28.5,00.0,38.2,31.5,23.3,0003.5,0010.91,0006.75,0006.39
2023-05-21 01:01:00,,0834.5,4.99,0.00,29.9,28.5,00.0,38.2,31.5,23.7,0003.3,0011.20,0006.83,0006.47
2023-05-21 01:02:00,,0834.5,4.99,0.00,29.9,28.5,00.0,38.2,31.5,24.4,0003.4,0011.33,0007.02,0006.66
2023-05-21 01:03:00,,0834.5,5.00,0.00,29.9,28.5,00.0,38.2,31.5,24.5,0003.4,0011.66,0007.32,0006.96
2023-05-21 01:04:00,,0834.5,5.00,0.00,29.9,28.5,00.0,38.2,31.5,24.9,0002.9,0012.03,0007.61,0007.24
2023-05-21 01:05:00,,0834.5,5.01,0.00,29.9,28.5,00.0,38.2,31.5,24.8,0002.8,0012.31,0007.86,0007.48
2023-05-21 01:06:00,,0834.5,4.99,0.00,29.9,28.5,00.0,38.2,31.5,24.4,0002.9,0012.56,0008.06,0007.70
2023-05-21 01:07:00,,0834.5,4.99,0.00,29.9,28.5,00.0,38.2,31.5,23.9,0003.0,0013.07,0008.29,0007.91
2023-05-21 01:08:00,,0834.5,5.00,0.00,29.9,27.7,00.0,38.2,31.5,24.4,0002.7,0012.83,0008.46,0008.08
2023-05-21 01:09:00,,0834.5,5.00,0.00,29.9,25.7,00.0,38.1,31.2,24.1,0002.7,0012.79,0008.64,0008.24
2023-05-21 01:10:00,,0834.4,5.00,0.00,29.8,24.6,00.0,38.0,30.9,24.3,0002.6,0012.99,0008.81,0008.41
2023-05-21 01:11:00,,0834.4,5.01,0.00,29.6,24.6,00.0,37.9,30.8,24.2,0002.6,0013.36,0009.03,0008.59
2023-05-21 01:12:00,,0834.4,5.01,0.00,29.5,25.0,00.0,37.9,30.7,24.2,0002.7,0013.28,0009.21,0008.77
2023-05-21 01:13:00,,0834.5,5.00,0.00,29.4,25.4,00.0,37.9,30.8,24.8,0002.8,0013.67,0009.33,0008.89
2023-05-21 01:14:00,,0834.5,4.99,0.00,29.4,25.9,00.0,37.9,30.8,25.1,0002.8,0014.10,0009.30,0008.84
2023-05-21 01:15:00,,0834.5,5.01,0.00,29.4,26.2,00.0,37.9,30.8,24.9,0003.2,0014.15,0009.26,0008.77
2023-05-21 01:16:00,,0834.5,5.00,0.00,29.3,26.6,00.0,37.8,30.9,24.9,0003.3,0014.21,0009.16,0008.69
2023-05-21 01:17:00,,0834.5,4.98,0.00,29.3,26.8,00.0,37.8,30.9,24.5,0003.2,0014.35,0009.07,0008.57
2023-05-21 01:18:00,,0834.5,5.00,0.00,29.3,27.0,00.0,37.8,30.9,24.5,0003.2,0014.06,0008.90,0008.44
2023-05-21 01:19:00,,0834.5,5.00,0.00,29.3,27.2,00.0,37.8,30.9,24.6,0003.3,0013.70,0008.78,0008.32
2023-05-21 01:20:00,,0834.7,5.01,0.00,29.3,27.4,00.0,37.8,30.9,24.6,0003.3,0013.60,0008.70,0008.25
2023-05-21 01:21:00,,0835.0,5.00,0.00,29.3,27.5,00.0,37.8,31.0,24.4,0003.4,0013.53,0008.62,0008.17
2023-05-21 01:22:00,,0835.0,5.00,0.00,29.4,27.6,00.0,37.8,31.0,24.5,0003.3,0013.29,0008.50,0008.08
2023-05-21 01:23:00,,0834.9,4.99,0.00,29.4,27.7,00.0,37.8,31.0,24.5,0003.2,0013.24,0008.41,0007.98
2023-05-21 01:24:00,,0834.8,5.00,0.00,29.4,27.8,00.0,37.8,31.0,24.5,0003.2,0012.84,0008.29,0007.87
2023-05-21 01:25:00,,0834.6,4.99,0.00,29.4,27.8,00.0,37.8,31.0,24.6,0003.0,0012.23,0008.15,0007.75
2023-05-21 01:26:00,,0834.8,4.99,0.00,29.4,27.9,00.0,37.8,31.0,24.6,0002.9,0011.91,0007.99,0007.63
2023-05-21 01:27:00,,0834.9,5.00,0.00,29.4,27.9,00.0,37.8,31.1,24.5,0002.9,0011.74,0007.90,0007.54
2023-05-21 01:28:00,,0835.2,5.00,0.00,29.4,27.9,00.0,37.8,31.1,24.6,0002.9,0011.41,0007.82,0007.47
2023-05-21 01:29:00,,0835.1,5.01,0.00,29.4,27.9,00.0,37.8,31.1,24.4,0002.8,0011.25,0007.81,0007.43
2023-05-21 01:30:00,,0835.2,5.00,0.00,29.5,28.0,00.0,37.8,31.1,24.3,0002.9,0011.21,0007.78,0007.38
2023-05-21 01:31:00,,0835.1,5.00,0.00,29.5,28.0,00.0,37.8,31.1,24.5,0003.0,0011.23,0007.70,0007.31
2023-05-21 01:32:00,,0835.2,5.00,0.00,29.5,28.0,00.0,37.8,31.1,24.7,0003.0,0011.20,0007.64,0007.24
2023-05-21 01:33:00,,0835.2,5.01,0.00,29.5,28.1,00.0,37.8,31.2,24.7,0002.9,0011.18,0007.62,0007.20
2023-05-21 01:34:00,,0834.9,5.00,0.00,29.5,28.1,00.0,37.8,31.2,24.4,0003.0,0011.21,0007.62,0007.17
2023-05-21 01:35:00,,0835.1,5.00,0.00,29.5,28.1,00.0,37.8,31.2,24.1,0003.1,0011.22,0007.61,0007.15
2023-05-21 01:36:00,,0835.2,4.99,0.00,29.6,28.1,00.0,37.9,31.2,23.9,0003.1,0011.22,0007.56,0007.14
2023-05-21 01:37:00,,0835.1,4.99,0.00,29.6,28.1,00.0,37.9,31.2,23.2,0003.1,0011.76,0007.59,0007.16
2023-05-21 01:38:00,,0835.2,4.99,0.00,29.6,28.2,00.0,37.9,31.2,23.2,0003.0,0011.80,0007.61,0007.18
2023-05-21 01:39:00,,0835.2,5.00,0.00,29.6,28.2,00.0,37.9,31.2,23.3,0003.0,0011.72,0007.58,0007.16
2023-05-21 01:40:00,,0835.2,5.01,0.00,29.6,28.2,00.0,37.9,31.2,22.9,0003.1,0011.74,0007.54,0007.13
2023-05-21 01:41:00,,0835.3,5.01,0.00,29.6,28.2,00.0,37.9,31.3,23.2,0003.2,0011.73,0007.52,0007.12
2023-05-21 01:42:00,,0835.1,4.99,0.00,29.6,28.2,00.0,37.9,31.3,23.2,0003.2,0011.71,0007.49,0007.08
2023-05-21 01:43:00,,0834.7,4.99,0.00,29.7,28.2,00.0,37.9,31.3,23.2,0003.0,0011.53,0007.47,0007.05
2023-05-21 01:44:00,,0834.7,5.00,0.00,29.7,28.3,00.0,38.0,31.3,23.3,0003.0,0011.49,0007.44,0007.02
2023-05-21 01:45:00,,0834.8,5.00,0.00,29.7,28.3,00.0,38.0,31.3,23.5,0002.9,0011.65,0007.37,0006.98
2023-05-21 01:46:00,,0834.8,5.01,0.00,29.7,28.3,00.0,38.0,31.3,23.6,0002.9,0011.69,0007.27,0006.92
2023-05-21 01:47:00,,0834.7,5.00,0.00,29.7,28.3,00.0,38.0,31.3,23.7,0002.8,0011.72,0007.21,0006.86
2023-05-21 01:48:00,,0834.7,4.98,0.00,29.7,28.3,00.0,38.0,31.3,23.8,0002.7,0011.31,0007.15,0006.79
2023-05-21 01:49:00,,0834.7,5.00,0.00,29.7,28.3,00.0,38.0,31.3,23.8,0002.8,0011.29,0007.09,0006.70
2023-05-21 01:50:00,,0834.7,5.00,0.00,29.7,28.3,00.0,38.0,31.4,23.8,0002.5,0011.19,0007.03,0006.63
2023-05-21 01:51:00,,0834.7,5.00,0.00,29.8,28.3,00.0,38.0,31.4,23.9,0002.8,0011.47,0007.00,0006.58
2023-05-21 01:52:00,,0834.9,5.01,0.00,29.8,28.3,00.0,38.1,31.4,23.9,0003.0,0012.06,0006.93,0006.52
2023-05-21 01:53:00,,0834.7,5.00,0.00,29.8,28.3,00.0,38.1,31.4,24.0,0002.9,0011.92,0006.85,0006.46
2023-05-21 01:54:00,,0834.7,4.99,0.00,29.8,28.3,00.0,38.1,31.4,23.9,0002.7,0012.21,0006.79,0006.42
2023-05-21 01:55:00,,0834.7,4.99,0.00,29.8,28.3,00.0,38.1,31.4,23.9,0002.8,0012.19,0006.75,0006.36
2023-05-21 01:56:00,,0834.7,5.00,0.00,29.8,28.4,00.0,38.1,31.4,24.0,0003.0,0012.00,0006.72,0006.33
2023-05-21 01:57:00,,0834.7,5.01,0.00,29.8,28.4,00.0,38.1,31.4,24.1,0003.0,0011.82,0006.73,0006.32
2023-05-21 01:58:00,,0834.7,5.00,0.00,29.8,28.4,00.0,38.1,31.4,24.3,0002.9,0011.82,0006.77,0006.29
2023-05-21 01:59:00,,0834.8,5.01,0.00,29.8,28.4,00.0,38.1,31.4,24.3,0002.9,0011.49,0006.75,0006.28
